Terug naar catalogus

COSMOS 1525

ActiefMilitairLEO
NORAD 14614·PAYLOAD·🇷🇺 Russia

Gelanceerd Jan 5, 1984 vanaf Plesetsk Cosmodrome

Loading…

Volgende Passages (komende 24 uur)

TLE

VersSource: Space-Track

Epoch: Sep 14, 2026, 17:17 UTC

1 14614U 84001D   26257.72057999 -.00000002  00000-0  89753-4 0  9998
2 14614  74.0125   0.8663 0022297 246.0159 281.5917 12.54912505955678

Volg COSMOS 1525 in realtime met AllMySat

Download on the App Store